Theta_e
296 291 287 292 294 294 294 294 291 295 299 298 297 298 300 304 303 304 306 313 329 334 338 341 340 340 340 341 343 343 342 345 347 345 345 347 347 351 351 353 353 352 354 342
292 287 291 296 295 294 295 294 293 296 297 298 297 296 300 303 303 305 307 321 329 333 335 337 339 340 340 342 344 344 344 348 349 350 351 349 348 347 348 348 349 349 343 335
289 291 295 295 293 291 292 292 295 294 296 298 297 294 297 301 304 307 309 318 330 332 332 334 337 339 341 340 342 344 345 349 351 352 350 345 342 342 341 342 336 341 340 334
292 294 291 294 292 293 290 298 298 296 293 289 297 288 295 299 302 308 309 320 328 332 335 336 337 338 340 340 343 345 346 349 349 348 342 342 339 336 341 335 333 333 337 330
290 293 292 292 294 296 293 299 298 297 295 292 292 290 294 298 299 303 309 318 327 332 334 336 337 339 340 342 343 346 346 345 345 346 345 339 340 336 334 332 330 329 329 326
294 300 297 296 299 299 299 297 296 295 293 286 292 291 292 296 300 303 308 315 322 329 333 336 339 339 340 341 340 341 342 343 344 345 345 344 341 333 331 329 326 324 323 322
293 294 299 299 295 299 299 295 287 285 286 285 293 291 295 300 303 306 309 314 322 326 330 332 334 334 337 338 337 338 340 340 342 342 343 343 343 337 333 330 326 323 319 319
288 286 295 299 297 294 295 295 289 281 283 286 293 289 295 301 305 308 311 316 322 326 328 331 333 335 335 336 337 337 338 339 340 340 341 342 342 337 334 332 326 322 320 321
289 289 297 298 300 300 295 292 296 290 291 288 291 295 300 305 305 309 312 317 320 325 329 329 332 333 334 335 336 337 337 337 338 339 338 335 335 334 332 326 326 324 324 323
295 289 295 297 299 299 298 300 291 294 284 283 288 291 293 300 304 310 314 315 320 325 327 329 330 332 333 335 335 337 337 337 338 338 335 332 333 332 330 326 323 322 322 318
297 295 292 296 294 294 295 294 294 295 293 288 285 290 303 306 310 309 310 313 320 324 326 328 330 332 333 333 334 335 334 335 334 332 331 330 329 328 326 324 321 317 316 316
299 296 290 292 297 300 299 296 297 292 289 293 293 292 309 310 311 313 313 315 315 322 327 328 329 332 332 332 332 331 332 332 331 330 330 327 327 325 319 315 313 315 316 315
301 295 288 288 293 296 295 296 297 297 296 291 289 292 306 311 311 313 313 316 316 315 323 326 328 330 332 332 328 329 330 330 330 329 325 321 317 312 311 310 311 313 312 311
303 297 292 287 290 294 292 295 297 296 293 292 294 295 301 306 309 312 314 316 314 315 321 324 328 330 333 330 328 323 321 321 320 318 315 314 312 310 310 311 311 310 309 308
299 294 296 296 297 295 295 295 296 294 294 292 294 296 304 307 309 310 314 315 313 316 319 324 327 329 325 324 320 319 317 314 311 308 307 307 307 306 306 306 306 306 308 309
297 292 295 293 297 297 293 295 296 296 297 297 298 298 308 309 310 308 307 312 316 318 320 323 323 321 320 319 313 308 307 307 305 304 302 303 302 302 303 303 304 306 306 305
293 295 294 289 295 294 290 294 295 297 299 299 295 302 308 303 304 303 303 302 302 303 306 316 319 318 318 310 308 308 308 308 306 303 302 301 301 301 301 302 302 302 302 303
293 294 294 292 293 285 295 303 299 298 300 303 306 308 309 304 301 301 303 301 299 299 301 303 305 308 309 310 312 316 315 310 305 302 301 301 300 299 299 299 298 300 302 302
295 294 293 290 290 293 297 301 301 297 296 305 306 307 305 303 301 297 299 300 299 299 301 302 304 305 306 306 306 305 303 304 300 299 299 299 299 298 297 297 299 300 300 300
296 296 293 292 288 286 296 303 308 306 294 307 309 308 304 307 303 298 298 299 298 299 300 299 300 300 300 301 303 301 299 299 297 297 297 297 295 294 294 296 297 297 297 297
292 292 289 290 290 293 302 305 308 293 295 308 310 310 307 305 305 300 298 297 297 298 299 299 299 296 297 299 298 295 295 294 296 295 295 293 293 293 294 295 295 295 296 296
292 291 292 293 291 289 305 305 299 305 307 310 311 311 306 299 298 297 297 296 296 297 297 297 296 296 298 298 297 296 294 296 295 294 294 293 295 294 295 295 295 296 296 295
290 293 291 296 295 304 306 305 309 310 307 309 311 305 301 299 297 296 296 295 296 295 295 296 295 295 296 296 295 292 293 294 293 292 291 292 293 293 295 295 294 294 295 294
295 299 296 297 300 301 306 306 309 309 308 312 307 304 303 299 298 297 294 293 293 294 293 294 295 295 294 295 294 294 294 294 293 291 291 294 295 295 295 295 294 293 293 293
295 297 297 298 300 301 306 304 307 306 306 306 306 304 303 302 297 296 293 292 292 292 295 297 297 296 295 297 296 297 297 298 296 295 294 295 295 295 294 294 294 293 292 291
298 296 293 293 299 299 299 304 307 305 304 305 305 304 304 303 297 295 293 293 293 294 296 296 296 295 295 295 295 296 297 297 296 295 295 294 294 294 294 293 291 289 289 288
Wind_Speed
12 8 7 16 16 13 11 14 17 18 12 20 30 17 21 10 8 14 14 14 14 14 10 13 15 16 16 16 18 17 16 15 11 11 11 9 9 9 8 6 7 7 6 11
6 7 11 15 17 19 14 9 13 13 25 15 18 21 17 25 10 12 12 14 16 16 14 14 16 18 19 19 18 18 16 17 14 12 10 8 10 7 8 10 14 16 14 12
10 2 3 16 15 21 18 9 8 4 18 15 13 16 17 21 19 13 9 13 17 21 20 17 17 17 17 18 19 18 17 17 14 14 8 5 4 4 3 4 7 8 16 15
7 3 8 15 15 19 15 18 10 7 8 11 15 6 17 17 15 14 13 13 15 18 18 16 17 17 17 16 16 16 16 14 11 10 8 8 5 4 3 6 7 8 12 14
3 10 14 7 15 18 11 5 8 7 4 6 12 5 9 11 17 19 17 15 15 16 19 19 19 17 14 15 15 14 12 10 8 8 7 6 5 7 6 8 13 13 11 12
12 4 4 5 9 16 8 12 5 3 4 9 12 11 11 16 27 20 15 14 14 16 16 16 14 14 14 13 12 11 11 11 9 8 7 7 9 10 9 10 10 8 8 9
2 9 5 5 3 8 15 8 5 5 6 5 7 9 4 17 11 16 16 14 15 16 17 17 17 15 15 15 13 10 8 7 8 10 9 9 10 12 13 14 10 11 9 6
2 5 13 14 10 8 13 7 2 6 7 9 5 7 3 2 8 10 14 13 15 16 15 18 18 17 15 12 10 9 9 9 10 9 10 9 10 9 11 13 11 9 9 9
4 1 5 10 6 11 7 7 1 1 1 8 6 2 3 4 6 6 11 7 11 15 15 15 14 13 12 11 11 11 11 10 10 10 9 11 11 13 13 12 8 7 9 10
4 2 5 7 5 2 6 8 6 2 7 7 5 2 5 3 6 4 6 11 8 9 12 13 12 12 10 9 8 9 11 11 9 10 11 10 12 13 13 10 11 9 7 9
4 5 4 6 9 10 6 6 2 2 3 1 6 4 2 4 6 5 3 1 5 10 12 12 12 11 11 11 10 10 10 11 11 11 9 10 9 11 10 10 9 8 10 11
3 5 4 12 2 12 10 6 7 2 3 3 2 5 5 4 5 7 8 9 4 4 6 9 12 12 12 11 11 11 12 11 9 10 10 9 12 12 10 9 9 9 12 11
4 4 2 7 7 4 9 5 3 4 1 1 2 4 7 5 5 5 7 8 9 5 7 9 11 12 12 13 13 11 10 10 9 9 11 10 12 12 12 12 10 9 10 9
4 4 5 2 2 4 7 9 8 3 2 5 1 1 6 2 6 7 7 7 8 8 11 12 12 12 13 14 14 13 12 11 12 12 11 9 12 14 14 12 10 10 9 10
5 5 8 6 4 4 8 10 10 6 2 4 2 6 3 4 6 7 8 3 3 7 10 11 13 13 13 16 16 15 15 14 14 15 15 12 8 15 13 12 12 9 10 10
11 3 3 7 7 7 10 12 11 5 3 6 2 4 4 4 5 8 10 9 6 7 8 10 11 13 15 17 17 17 17 16 17 16 16 16 10 12 13 10 9 12 11 10
7 5 5 2 5 6 7 12 11 8 8 6 6 1 10 4 7 5 7 11 11 12 13 10 10 11 12 16 18 17 17 16 19 18 14 11 11 8 10 10 10 10 10 9
7 7 3 4 3 4 5 7 8 11 5 6 6 8 7 9 10 9 7 10 12 12 13 14 14 15 13 14 15 16 14 16 17 16 16 13 11 11 10 8 9 11 8 8
14 5 4 4 3 3 3 9 6 4 9 5 8 12 13 13 10 9 10 10 12 13 12 14 14 14 15 13 14 16 13 16 14 18 14 13 10 12 8 10 11 10 7 7
9 9 4 4 4 2 6 12 12 7 5 3 5 13 16 14 7 3 8 9 12 12 12 14 15 16 17 14 14 16 15 16 15 13 13 12 13 11 11 10 9 6 5 7
5 3 3 4 4 2 11 15 4 5 3 13 6 11 15 4 5 15 12 12 12 12 15 14 16 16 14 13 15 17 16 15 12 13 13 12 11 11 9 9 6 6 7 8
2 2 1 2 3 3 14 5 9 10 11 12 8 12 13 14 17 16 14 14 13 16 16 15 18 15 11 12 14 16 16 11 12 12 12 10 12 9 8 9 9 8 7 9
3 4 4 5 3 2 5 6 13 12 12 9 12 15 19 17 17 15 15 16 13 16 13 12 14 15 12 11 11 16 10 10 11 12 12 10 11 9 10 10 9 8 8 7
7 6 3 5 4 14 3 12 14 12 10 9 14 20 19 20 18 19 15 15 15 13 12 12 13 15 14 12 14 14 12 11 12 12 10 9 10 11 10 8 8 8 8 7
3 9 8 4 8 11 2 17 13 11 5 14 16 20 21 22 18 17 16 16 14 13 12 12 14 15 16 14 14 13 13 13 13 13 11 10 8 10 10 11 8 9 12 10
2 1 2 3 6 3 10 15 14 5 5 9 17 17 17 19 21 17 14 12 14 15 13 13 15 16 15 14 14 13 12 12 12 11 9 8 7 7 7 8 10 14 12 13
Wind_Direction
196 211 216 209 212 232 210 210 228 221 217 211 220 217 234 263 230 233 211 196 188 184 171 172 173 165 158 163 166 165 163 167 159 162 161 161 166 159 157 156 164 158 137 111
182 227 245 237 210 230 242 252 206 224 218 212 210 227 226 244 252 238 204 183 181 174 173 173 169 169 172 169 170 169 165 169 170 173 179 180 169 185 177 173 157 149 134 122
233 199 171 253 206 221 233 255 213 289 190 203 193 216 219 234 242 257 217 210 187 182 177 179 176 178 175 174 173 174 169 173 176 182 167 108 92 98 106 86 67 109 120 122
243 232 264 251 219 216 233 212 248 266 189 193 202 187 214 209 214 227 212 196 191 186 179 181 178 176 183 176 174 173 170 174 168 163 157 162 144 141 75 86 89 88 107 111
315 176 190 232 211 205 236 211 230 283 257 210 192 251 161 205 215 215 207 191 192 190 184 182 185 186 177 173 174 166 168 174 184 185 169 167 125 104 117 114 103 108 103 99
250 217 175 238 217 219 137 241 255 220 225 206 179 226 180 194 209 207 202 183 187 192 188 185 184 176 175 172 170 168 164 172 179 195 189 192 151 138 134 132 121 115 108 103
184 205 191 207 234 223 217 185 149 161 188 186 155 206 332 203 208 211 205 183 182 185 189 184 181 183 185 178 173 170 165 175 190 208 213 203 181 164 150 147 138 136 135 138
267 183 178 194 200 188 194 196 177 160 182 157 139 212 112 260 207 216 211 203 175 182 188 193 189 190 189 185 184 178 176 177 182 189 204 209 187 167 161 156 144 151 145 162
300 98 185 195 183 178 168 207 339 64 31 167 169 196 161 84 135 177 186 192 183 179 182 184 181 185 183 182 184 186 184 183 188 190 161 158 158 162 160 147 138 129 137 145
314 290 185 184 183 216 226 147 196 197 167 171 146 176 98 55 68 77 170 200 201 181 175 178 177 174 171 166 171 179 186 188 192 175 165 157 156 164 152 136 126 136 129 117
296 285 129 179 209 187 167 188 83 43 324 142 138 134 67 356 339 335 330 270 219 199 188 171 168 167 159 163 169 164 162 155 149 145 144 136 133 135 124 122 123 118 120 122
232 300 197 204 255 221 203 188 208 266 144 50 9 118 108 52 14 343 327 313 275 215 198 175 169 157 151 148 148 153 150 138 125 128 125 119 122 122 108 100 101 119 123 111
353 246 168 145 131 159 209 182 147 110 36 48 6 113 163 56 30 14 332 304 287 210 174 167 169 162 153 140 134 120 117 113 107 104 101 96 100 98 95 88 85 98 98 100
210 283 329 347 119 168 187 188 184 190 162 143 241 220 203 2 29 10 346 307 259 209 172 169 171 159 147 126 113 96 85 81 84 81 78 89 104 104 99 95 95 86 88 90
33 3 338 316 255 254 204 181 175 203 126 198 183 232 77 37 31 11 4 13 177 187 174 163 158 143 118 110 103 98 85 79 80 79 71 58 42 85 88 86 77 87 86 83
346 4 305 308 340 216 214 192 189 186 182 254 238 245 130 93 77 41 30 37 100 137 154 154 124 116 114 113 100 99 93 88 84 77 80 79 58 62 80 93 102 93 87 82
302 327 342 313 16 142 221 215 203 193 206 217 217 292 162 109 77 41 59 63 51 47 45 79 103 109 110 110 112 113 120 126 115 112 91 92 84 92 84 88 85 80 81 84
277 316 290 303 321 185 57 28 233 235 244 178 112 137 143 122 88 53 46 95 76 62 62 67 76 82 94 110 117 117 110 116 107 96 103 100 104 101 89 84 84 84 80 81
218 269 294 306 274 333 80 27 355 300 269 196 171 142 134 126 112 58 50 72 90 86 78 77 80 86 84 78 86 92 93 97 84 95 100 105 101 90 83 78 78 81 100 100
188 242 327 322 295 350 35 328 313 271 254 350 178 156 144 169 127 102 88 89 84 85 85 89 88 86 85 77 84 84 84 85 81 83 91 92 87 77 73 73 77 92 105 84
146 180 215 236 270 109 348 331 306 207 20 331 241 178 152 106 40 120 113 95 87 86 95 94 88 85 79 94 94 83 78 73 79 85 89 83 78 92 93 94 96 86 72 76
68 302 286 272 263 109 6 31 345 332 309 305 217 162 124 113 119 123 122 106 104 103 92 89 88 88 92 100 95 93 95 108 105 92 89 86 94 95 100 93 77 69 68 65
56 11 322 352 30 12 340 344 313 310 291 289 152 132 131 132 129 127 123 118 116 93 90 87 95 100 85 84 93 101 101 99 99 98 91 94 106 112 100 89 83 76 63 58
330 5 277 356 342 346 53 355 341 335 308 228 151 134 137 134 133 133 128 113 102 103 104 103 105 97 92 91 93 99 110 111 111 110 115 113 102 97 88 81 71 62 53 51
304 314 328 311 3 350 259 334 340 344 45 126 137 139 140 137 136 131 121 117 124 119 116 119 117 110 106 111 110 117 121 127 122 114 110 111 107 100 90 68 54 67 51 36
232 89 354 301 333 288 294 308 323 21 85 134 134 132 138 140 129 126 118 123 123 120 120 116 109 109 110 109 111 114 117 120 119 113 106 102 107 102 97 102 91 69 73 66